Back to catalog

CZ-6A DEB

AlivePO
NORAD 61135·DEBRIS·🇨🇳 China

Launched Aug 6, 2024 from Taiyuan Satellite Launch Center

Loading…

Next Passes (next 24 hours)

TLE

FreshSource: Space-Track

Epoch: Sep 14, 2026, 10:39 UTC

1 61135U 24140QD  26257.44434613  .00000302  00000-0  18709-3 0  9991
2 61135  88.8502 255.0409 0143912 344.7360  14.9496 13.97783711105209

Track CZ-6A DEB in real time with AllMySat

Download on the App Store